Time,TemperatureF,DewpointF,PressureIn,WindDirection,WindDirectionDegrees,WindSpeedMPH,WindSpeedGustMPH,Humidity,HourlyPrecipIn,Conditions,Clouds,dailyrainin,SoftwareType,DateUTC
2013-01-23 00:00:00,25.6,17.5,30.34,ENE,64,0.0,-999.0,71,0.00,,,0.00,Wunderground v.1.15,2013-01-23 05:00:00,
2013-01-23 00:04:00,25.6,16.8,30.34,ENE,64,0.0,-999.0,69,0.00,,,0.00,Wunderground v.1.15,2013-01-23 05:04:00,
2013-01-23 00:10:00,25.4,16.6,30.34,ENE,64,0.0,-999.0,69,0.00,,,0.00,Wunderground v.1.15,2013-01-23 05:10:00,
2013-01-23 00:12:00,25.4,16.6,30.34,ENE,64,0.0,-999.0,69,0.00,,,0.00,Wunderground v.1.15,2013-01-23 05:12:00,
2013-01-23 00:18:00,25.2,16.1,30.34,ENE,64,0.0,-999.0,68,0.00,,,0.00,Wunderground v.1.15,2013-01-23 05:18:00,
2013-01-23 00:24:00,25.3,16.5,30.34,ENE,64,0.0,-999.0,69,0.00,,,0.00,Wunderground v.1.15,2013-01-23 05:24:00,
2013-01-23 00:32:00,25.1,16.4,30.34,ENE,64,0.0,-999.0,69,0.00,,,0.00,Wunderground v.1.15,2013-01-23 05:32:00,
2013-01-23 00:38:00,25.0,16.6,30.34,ENE,64,0.0,-999.0,70,0.00,,,0.00,Wunderground v.1.15,2013-01-23 05:38:00,
2013-01-23 00:44:00,24.8,16.4,30.34,ENE,64,0.0,-999.0,70,0.00,,,0.00,Wunderground v.1.15,2013-01-23 05:44:00,
2013-01-23 00:50:00,24.6,17.2,30.34,ENE,64,0.0,-999.0,73,0.00,,,0.00,Wunderground v.1.15,2013-01-23 05:50:00,
2013-01-23 00:56:00,24.5,17.4,30.34,ENE,64,0.0,-999.0,74,0.00,,,0.00,Wunderground v.1.15,2013-01-23 05:56:00,
2013-01-23 01:02:00,24.4,17.3,30.34,ENE,64,0.0,-999.0,74,0.00,,,0.00,Wunderground v.1.15,2013-01-23 06:02:00,
2013-01-23 01:08:00,24.2,17.4,30.34,ENE,64,0.0,-999.0,75,0.00,,,0.00,Wunderground v.1.15,2013-01-23 06:08:00,
2013-01-23 01:14:00,24.1,17.0,30.34,ENE,64,0.0,-999.0,74,0.00,,,0.00,Wunderground v.1.15,2013-01-23 06:14:00,
2013-01-23 01:20:00,24.1,17.3,30.35,ENE,64,0.0,-999.0,75,0.00,,,0.00,Wunderground v.1.15,2013-01-23 06:20:00,
2013-01-23 01:26:00,24.0,17.2,30.35,ENE,64,0.0,-999.0,75,0.00,,,0.00,Wunderground v.1.15,2013-01-23 06:26:00,
2013-01-23 01:32:00,23.8,17.3,30.35,ENE,64,0.0,-999.0,76,0.00,,,0.00,Wunderground v.1.15,2013-01-23 06:32:00,
2013-01-23 01:38:00,23.6,17.1,30.35,ENE,64,0.0,-999.0,76,0.00,,,0.00,Wunderground v.1.15,2013-01-23 06:38:00,
2013-01-23 01:44:00,23.5,17.0,30.35,ENE,64,0.0,-999.0,76,0.00,,,0.00,Wunderground v.1.15,2013-01-23 06:44:00,
2013-01-23 01:50:00,23.4,17.3,30.35,ENE,64,0.0,-999.0,77,0.00,,,0.00,Wunderground v.1.15,2013-01-23 06:50:00,
2013-01-23 01:56:00,23.3,17.2,30.35,ENE,64,0.0,-999.0,77,0.00,,,0.00,Wunderground v.1.15,2013-01-23 06:56:00,
2013-01-23 02:02:00,23.2,17.1,30.36,ENE,64,0.0,-999.0,77,0.00,,,0.00,Wunderground v.1.15,2013-01-23 07:02:00,
2013-01-23 02:08:00,23.2,17.1,30.36,ENE,64,0.0,-999.0,77,0.00,,,0.00,Wunderground v.1.15,2013-01-23 07:08:00,
2013-01-23 02:14:00,23.2,17.1,30.36,ENE,64,0.0,-999.0,77,0.00,,,0.00,Wunderground v.1.15,2013-01-23 07:14:00,
2013-01-23 02:20:00,23.1,17.3,30.36,ENE,64,0.0,-999.0,78,0.00,,,0.00,Wunderground v.1.15,2013-01-23 07:20:00,
2013-01-23 02:26:00,22.9,17.1,30.36,ENE,64,0.0,-999.0,78,0.00,,,0.00,Wunderground v.1.15,2013-01-23 07:26:00,
2013-01-23 02:32:00,22.8,17.0,30.37,ENE,64,0.0,-999.0,78,0.00,,,0.00,Wunderground v.1.15,2013-01-23 07:32:00,
2013-01-23 02:38:00,22.7,17.2,30.37,ENE,64,0.0,-999.0,79,0.00,,,0.00,Wunderground v.1.15,2013-01-23 07:38:00,
2013-01-23 02:44:00,22.5,17.0,30.37,ENE,64,0.0,-999.0,79,0.00,,,0.00,Wunderground v.1.15,2013-01-23 07:44:00,
2013-01-23 02:50:00,22.4,16.9,30.37,ENE,64,0.0,-999.0,79,0.00,,,0.00,Wunderground v.1.15,2013-01-23 07:50:00,
2013-01-23 02:56:00,22.4,17.2,30.37,ENE,64,0.0,-999.0,80,0.00,,,0.00,Wunderground v.1.15,2013-01-23 07:56:00,
2013-01-23 03:02:00,22.4,17.2,30.36,ENE,64,0.0,-999.0,80,0.00,,,0.00,Wunderground v.1.15,2013-01-23 08:02:00,
2013-01-23 03:08:00,22.4,16.9,30.37,ENE,64,0.0,-999.0,79,0.00,,,0.00,Wunderground v.1.15,2013-01-23 08:08:00,
2013-01-23 03:14:00,22.3,17.1,30.37,ENE,64,0.0,-999.0,80,0.00,,,0.00,Wunderground v.1.15,2013-01-23 08:14:00,
2013-01-23 03:20:00,22.2,17.3,30.37,ENE,64,0.0,-999.0,81,0.00,,,0.00,Wunderground v.1.15,2013-01-23 08:20:00,
2013-01-23 03:26:00,22.1,17.2,30.37,ENE,64,0.0,-999.0,81,0.00,,,0.00,Wunderground v.1.15,2013-01-23 08:26:00,
2013-01-23 03:32:00,22.0,17.1,30.37,ENE,64,0.0,-999.0,81,0.00,,,0.00,Wunderground v.1.15,2013-01-23 08:32:00,
2013-01-23 03:38:00,21.8,17.2,30.37,ENE,64,0.0,-999.0,82,0.00,,,0.00,Wunderground v.1.15,2013-01-23 08:38:00,
2013-01-23 03:44:00,21.8,17.2,30.37,ENE,64,0.0,-999.0,82,0.00,,,0.00,Wunderground v.1.15,2013-01-23 08:44:00,
2013-01-23 03:50:00,21.7,17.1,30.37,ENE,64,0.0,-999.0,82,0.00,,,0.00,Wunderground v.1.15,2013-01-23 08:50:00,
2013-01-23 03:56:00,21.6,17.0,30.37,ENE,64,0.0,-999.0,82,0.00,,,0.00,Wunderground v.1.15,2013-01-23 08:56:00,
2013-01-23 04:02:00,21.5,16.9,30.37,ENE,64,0.0,-999.0,82,0.00,,,0.00,Wunderground v.1.15,2013-01-23 09:02:00,
2013-01-23 04:08:00,21.3,16.9,30.37,ENE,64,0.0,-999.0,83,0.00,,,0.00,Wunderground v.1.15,2013-01-23 09:08:00,
2013-01-23 04:14:00,21.2,16.8,30.37,ENE,64,0.0,-999.0,83,0.00,,,0.00,Wunderground v.1.15,2013-01-23 09:14:00,
2013-01-23 04:20:00,21.0,16.9,30.37,ENE,64,0.0,-999.0,84,0.00,,,0.00,Wunderground v.1.15,2013-01-23 09:20:00,
2013-01-23 04:26:00,21.0,16.9,30.37,ENE,64,0.0,-999.0,84,0.00,,,0.00,Wunderground v.1.15,2013-01-23 09:26:00,
2013-01-23 04:32:00,21.0,17.2,30.37,ENE,64,0.0,-999.0,85,0.00,,,0.00,Wunderground v.1.15,2013-01-23 09:32:00,
2013-01-23 04:38:00,20.9,16.8,30.38,ENE,64,0.0,-999.0,84,0.00,,,0.00,Wunderground v.1.15,2013-01-23 09:38:00,
2013-01-23 04:44:00,20.8,17.0,30.37,ENE,64,0.0,-999.0,85,0.00,,,0.00,Wunderground v.1.15,2013-01-23 09:44:00,
2013-01-23 04:50:00,20.8,17.0,30.38,ENE,64,0.0,-999.0,85,0.00,,,0.00,Wunderground v.1.15,2013-01-23 09:50:00,
2013-01-23 04:56:00,20.7,16.6,30.38,ENE,64,0.0,-999.0,84,0.00,,,0.00,Wunderground v.1.15,2013-01-23 09:56:00,
2013-01-23 05:02:00,20.6,16.5,30.38,ENE,64,0.0,-999.0,84,0.00,,,0.00,Wunderground v.1.15,2013-01-23 10:02:00,
2013-01-23 05:08:00,20.5,16.4,30.39,ENE,64,0.0,-999.0,84,0.00,,,0.00,Wunderground v.1.15,2013-01-23 10:08:00,
2013-01-23 05:14:00,20.4,16.6,30.38,ENE,64,0.0,-999.0,85,0.00,,,0.00,Wunderground v.1.15,2013-01-23 10:14:00,
2013-01-23 05:20:00,20.5,16.7,30.39,ENE,64,0.0,-999.0,85,0.00,,,0.00,Wunderground v.1.15,2013-01-23 10:20:00,
2013-01-23 05:26:00,20.5,16.4,30.39,ENE,64,0.0,-999.0,84,0.00,,,0.00,Wunderground v.1.15,2013-01-23 10:26:00,
2013-01-23 05:32:00,20.5,16.4,30.39,ENE,64,0.0,-999.0,84,0.00,,,0.00,Wunderground v.1.15,2013-01-23 10:32:00,
2013-01-23 05:38:00,20.6,16.5,30.39,ENE,64,0.0,-999.0,84,0.00,,,0.00,Wunderground v.1.15,2013-01-23 10:38:00,
2013-01-23 05:44:00,20.6,16.5,30.39,ENE,64,0.0,-999.0,84,0.00,,,0.00,Wunderground v.1.15,2013-01-23 10:44:00,
2013-01-23 05:50:00,20.6,16.8,30.39,ENE,64,0.0,-999.0,85,0.00,,,0.00,Wunderground v.1.15,2013-01-23 10:50:00,
2013-01-23 05:56:00,20.6,16.5,30.40,ENE,64,0.0,-999.0,84,0.00,,,0.00,Wunderground v.1.15,2013-01-23 10:56:00,
2013-01-23 06:02:00,20.5,16.7,30.40,ENE,64,0.0,-999.0,85,0.00,,,0.00,Wunderground v.1.15,2013-01-23 11:02:00,
2013-01-23 06:08:00,20.5,16.7,30.40,ENE,64,0.0,-999.0,85,0.00,,,0.00,Wunderground v.1.15,2013-01-23 11:08:00,
2013-01-23 06:14:00,20.5,16.7,30.40,ENE,64,0.0,-999.0,85,0.00,,,0.00,Wunderground v.1.15,2013-01-23 11:14:00,
2013-01-23 06:20:00,20.4,16.6,30.40,ENE,64,0.0,-999.0,85,0.00,,,0.00,Wunderground v.1.15,2013-01-23 11:20:00,
2013-01-23 06:26:00,20.3,16.5,30.40,ENE,64,0.0,-999.0,85,0.00,,,0.00,Wunderground v.1.15,2013-01-23 11:26:00,
2013-01-23 06:32:00,20.2,16.7,30.40,ENE,64,0.0,-999.0,86,0.00,,,0.00,Wunderground v.1.15,2013-01-23 11:32:00,
2013-01-23 06:38:00,20.2,16.7,30.40,ENE,64,0.0,-999.0,86,0.00,,,0.00,Wunderground v.1.15,2013-01-23 11:38:00,
2013-01-23 06:44:00,20.0,16.5,30.41,ENE,64,0.0,-999.0,86,0.00,,,0.00,Wunderground v.1.15,2013-01-23 11:44:00,
2013-01-23 06:50:00,19.9,16.7,30.41,ENE,64,0.0,-999.0,87,0.00,,,0.00,Wunderground v.1.15,2013-01-23 11:50:00,
2013-01-23 06:56:00,19.8,16.6,30.40,ENE,64,0.0,-999.0,87,0.00,,,0.00,Wunderground v.1.15,2013-01-23 11:56:00,
2013-01-23 07:02:00,19.8,16.8,30.40,ENE,64,0.0,-999.0,88,0.00,,,0.00,Wunderground v.1.15,2013-01-23 12:02:00,
2013-01-23 07:08:00,19.9,16.9,30.40,ENE,64,0.0,-999.0,88,0.00,,,0.00,Wunderground v.1.15,2013-01-23 12:08:00,
2013-01-23 07:14:00,19.9,16.9,30.40,ENE,64,0.0,-999.0,88,0.00,,,0.00,Wunderground v.1.15,2013-01-23 12:14:00,
2013-01-23 07:20:00,19.9,16.9,30.41,ENE,64,0.0,-999.0,88,0.00,,,0.00,Wunderground v.1.15,2013-01-23 12:20:00,
2013-01-23 07:26:00,19.9,16.9,30.41,ENE,64,0.0,-999.0,88,0.00,,,0.00,Wunderground v.1.15,2013-01-23 12:26:00,
2013-01-23 07:32:00,19.8,16.8,30.41,ENE,64,0.0,-999.0,88,0.00,,,0.00,Wunderground v.1.15,2013-01-23 12:32:00,
2013-01-23 07:38:00,19.8,16.8,30.42,ENE,64,0.0,-999.0,88,0.00,,,0.00,Wunderground v.1.15,2013-01-23 12:38:00,
2013-01-23 07:44:00,19.9,17.2,30.42,ENE,64,0.0,-999.0,89,0.00,,,0.00,Wunderground v.1.15,2013-01-23 12:44:00,
2013-01-23 07:50:00,19.9,17.2,30.41,ENE,64,0.0,-999.0,89,0.00,,,0.00,Wunderground v.1.15,2013-01-23 12:50:00,
2013-01-23 07:56:00,20.3,17.6,30.42,ENE,64,0.0,-999.0,89,0.00,,,0.00,Wunderground v.1.15,2013-01-23 12:56:00,
2013-01-23 08:02:00,20.8,18.3,30.42,ENE,64,0.0,-999.0,90,0.00,,,0.00,Wunderground v.1.15,2013-01-23 13:02:00,
2013-01-23 08:08:00,21.5,19.0,30.43,ENE,64,0.0,-999.0,90,0.00,,,0.00,Wunderground v.1.15,2013-01-23 13:08:00,
2013-01-23 08:14:00,22.6,19.6,30.42,ENE,64,0.0,-999.0,88,0.00,,,0.00,Wunderground v.1.15,2013-01-23 13:14:00,
2013-01-23 08:20:00,23.3,19.2,30.43,ENE,64,0.0,-999.0,84,0.00,,,0.00,Wunderground v.1.15,2013-01-23 13:20:00,
2013-01-23 08:26:00,23.8,18.2,30.43,ENE,64,0.0,-999.0,79,0.00,,,0.00,Wunderground v.1.15,2013-01-23 13:26:00,
2013-01-23 08:32:00,24.9,18.1,30.42,WSW,246,0.0,-999.0,75,0.00,,,0.00,Wunderground v.1.15,2013-01-23 13:32:00,
2013-01-23 08:38:00,26.3,14.7,30.43,West,272,0.0,-999.0,61,0.00,,,0.00,Wunderground v.1.15,2013-01-23 13:38:00,
2013-01-23 08:44:00,27.5,14.2,30.43,SW,224,1.0,-999.0,57,0.00,,,0.00,Wunderground v.1.15,2013-01-23 13:44:00,
2013-01-23 08:50:00,28.1,13.1,30.43,WSW,243,1.0,-999.0,53,0.00,,,0.00,Wunderground v.1.15,2013-01-23 13:50:00,
2013-01-23 08:56:00,28.8,12.0,30.43,WSW,247,2.0,-999.0,49,0.00,,,0.00,Wunderground v.1.15,2013-01-23 13:56:00,
2013-01-23 09:02:00,29.0,12.2,30.43,WNW,297,2.0,-999.0,49,0.00,,,0.00,Wunderground v.1.15,2013-01-23 14:02:00,
2013-01-23 09:08:00,29.2,11.4,30.43,WSW,243,2.0,-999.0,47,0.00,,,0.00,Wunderground v.1.15,2013-01-23 14:08:00,
2013-01-23 09:14:00,29.5,10.7,30.44,WSW,245,3.0,-999.0,45,0.00,,,0.00,Wunderground v.1.15,2013-01-23 14:14:00,
2013-01-23 09:20:00,29.9,11.1,30.44,WNW,303,2.0,-999.0,45,0.00,,,0.00,Wunderground v.1.15,2013-01-23 14:20:00,
2013-01-23 09:26:00,30.4,12.5,30.44,West,264,2.0,-999.0,47,0.00,,,0.00,Wunderground v.1.15,2013-01-23 14:26:00,
2013-01-23 09:32:00,30.8,11.4,30.44,WSW,241,2.0,-999.0,44,0.00,,,0.00,Wunderground v.1.15,2013-01-23 14:32:00,
2013-01-23 09:38:00,31.1,12.2,30.44,NW,317,3.0,-999.0,45,0.00,,,0.00,Wunderground v.1.15,2013-01-23 14:38:00,
2013-01-23 09:44:00,32.0,12.5,30.44,West,264,2.0,-999.0,44,0.00,,,0.00,Wunderground v.1.15,2013-01-23 14:44:00,
2013-01-23 09:50:00,32.7,13.7,30.45,WNW,293,1.0,-999.0,45,0.00,,,0.00,Wunderground v.1.15,2013-01-23 14:50:00,
2013-01-23 09:56:00,33.6,12.9,30.45,SW,233,2.0,-999.0,42,0.00,,,0.00,Wunderground v.1.15,2013-01-23 14:56:00,
2013-01-23 10:02:00,33.9,13.2,30.45,West,267,2.0,-999.0,42,0.00,,,0.00,Wunderground v.1.15,2013-01-23 15:02:00,
2013-01-23 10:08:00,34.4,13.1,30.45,West,275,2.0,-999.0,41,0.00,,,0.00,Wunderground v.1.15,2013-01-23 15:08:00,
2013-01-23 10:14:00,34.9,13.0,30.45,WNW,289,2.0,-999.0,40,0.00,,,0.00,Wunderground v.1.15,2013-01-23 15:14:00,
2013-01-23 10:20:00,35.3,12.2,30.45,WSW,237,1.0,-999.0,38,0.00,,,0.00,Wunderground v.1.15,2013-01-23 15:20:00,
2013-01-23 10:26:00,35.5,12.4,30.45,WSW,253,2.0,-999.0,38,0.00,,,0.00,Wunderground v.1.15,2013-01-23 15:26:00,
2013-01-23 10:32:00,35.9,13.3,30.45,WNW,300,1.0,-999.0,39,0.00,,,0.00,Wunderground v.1.15,2013-01-23 15:32:00,
2013-01-23 10:38:00,36.8,14.7,30.45,NNW,347,1.0,-999.0,40,0.00,,,0.00,Wunderground v.1.15,2013-01-23 15:38:00,
2013-01-23 10:44:00,37.3,12.1,30.45,SW,232,1.0,-999.0,35,0.00,,,0.00,Wunderground v.1.15,2013-01-23 15:44:00,
2013-01-23 10:50:00,37.6,13.0,30.45,WNW,291,2.0,-999.0,36,0.00,,,0.00,Wunderground v.1.15,2013-01-23 15:50:00,
2013-01-23 10:56:00,38.0,14.0,30.45,NNW,331,2.0,-999.0,37,0.00,,,0.00,Wunderground v.1.15,2013-01-23 15:56:00,
2013-01-23 11:02:00,38.2,14.2,30.45,North,360,1.0,-999.0,37,0.00,,,0.00,Wunderground v.1.15,2013-01-23 16:02:00,
2013-01-23 11:08:00,38.8,12.1,30.44,NNW,333,1.0,-999.0,33,0.00,,,0.00,Wunderground v.1.15,2013-01-23 16:08:00,
2013-01-23 11:14:00,39.3,12.6,30.44,North,8,1.0,-999.0,33,0.00,,,0.00,Wunderground v.1.15,2013-01-23 16:14:00,
2013-01-23 11:20:00,39.5,15.3,30.44,NNE,29,2.0,-999.0,37,0.00,,,0.00,Wunderground v.1.15,2013-01-23 16:20:00,
2013-01-23 11:26:00,39.7,12.2,30.43,West,272,1.0,-999.0,32,0.00,,,0.00,Wunderground v.1.15,2013-01-23 16:26:00,
2013-01-23 11:32:00,39.7,12.2,30.43,NNW,340,2.0,-999.0,32,0.00,,,0.00,Wunderground v.1.15,2013-01-23 16:32:00,
2013-01-23 11:38:00,40.5,15.0,30.43,WSW,245,1.0,-999.0,35,0.00,,,0.00,Wunderground v.1.15,2013-01-23 16:38:00,
2013-01-23 11:44:00,40.8,15.2,30.42,NNW,338,1.0,-999.0,35,0.00,,,0.00,Wunderground v.1.15,2013-01-23 16:44:00,
2013-01-23 11:50:00,40.6,12.3,30.42,WNW,285,2.0,-999.0,31,0.00,,,0.00,Wunderground v.1.15,2013-01-23 16:50:00,
2013-01-23 11:56:00,41.1,14.8,30.41,NNE,18,2.0,-999.0,34,0.00,,,0.00,Wunderground v.1.15,2013-01-23 16:56:00,
2013-01-23 12:02:00,40.9,13.3,30.41,NNE,13,2.0,-999.0,32,0.00,,,0.00,Wunderground v.1.15,2013-01-23 17:02:00,
2013-01-23 12:08:00,41.2,14.9,30.40,NW,321,2.0,-999.0,34,0.00,,,0.00,Wunderground v.1.15,2013-01-23 17:08:00,
2013-01-23 12:14:00,41.8,14.1,30.40,West,265,2.0,-999.0,32,0.00,,,0.00,Wunderground v.1.15,2013-01-23 17:14:00,
2013-01-23 12:20:00,42.3,15.2,30.40,West,278,2.0,-999.0,33,0.00,,,0.00,Wunderground v.1.15,2013-01-23 17:20:00,
2013-01-23 12:26:00,42.4,17.3,30.39,North,2,2.0,-999.0,36,0.00,,,0.00,Wunderground v.1.15,2013-01-23 17:26:00,
2013-01-23 12:32:00,42.7,19.4,30.39,ENE,64,2.0,-999.0,39,0.00,,,0.00,Wunderground v.1.15,2013-01-23 17:32:00,
2013-01-23 12:38:00,42.7,17.6,30.38,ENE,61,1.0,-999.0,36,0.00,,,0.00,Wunderground v.1.15,2013-01-23 17:38:00,
2013-01-23 12:44:00,42.9,16.4,30.38,WSW,240,1.0,-999.0,34,0.00,,,0.00,Wunderground v.1.15,2013-01-23 17:44:00,
2013-01-23 12:50:00,43.0,16.5,30.37,West,276,1.0,-999.0,34,0.00,,,0.00,Wunderground v.1.15,2013-01-23 17:50:00,
2013-01-23 12:56:00,43.7,17.8,30.36,NNW,328,2.0,-999.0,35,0.00,,,0.00,Wunderground v.1.15,2013-01-23 17:56:00,
2013-01-23 13:02:00,43.4,16.9,30.36,WNW,284,2.0,-999.0,34,0.00,,,0.00,Wunderground v.1.15,2013-01-23 18:02:00,
2013-01-23 13:08:00,43.3,18.7,30.35,North,357,3.0,-999.0,37,0.00,,,0.00,Wunderground v.1.15,2013-01-23 18:08:00,
2013-01-23 13:14:00,43.6,18.4,30.35,NE,46,2.0,-999.0,36,0.00,,,0.00,Wunderground v.1.15,2013-01-23 18:14:00,
2013-01-23 13:20:00,43.8,20.4,30.34,NNE,33,2.0,-999.0,39,0.00,,,0.00,Wunderground v.1.15,2013-01-23 18:20:00,
2013-01-23 13:26:00,44.0,19.4,30.34,NNW,346,3.0,-999.0,37,0.00,,,0.00,Wunderground v.1.15,2013-01-23 18:26:00,
2013-01-23 13:32:00,44.6,20.5,30.33,North,360,3.0,-999.0,38,0.00,,,0.00,Wunderground v.1.15,2013-01-23 18:32:00,
2013-01-23 13:38:00,44.5,19.8,30.33,North,357,3.0,-999.0,37,0.00,,,0.00,Wunderground v.1.15,2013-01-23 18:38:00,
2013-01-23 13:44:00,44.6,19.3,30.33,ENE,72,2.0,-999.0,36,0.00,,,0.00,Wunderground v.1.15,2013-01-23 18:44:00,
2013-01-23 13:50:00,44.6,21.1,30.32,ENE,77,1.0,-999.0,39,0.00,,,0.00,Wunderground v.1.15,2013-01-23 18:50:00,
2013-01-23 13:56:00,44.8,20.7,30.32,NNE,27,3.0,-999.0,38,0.00,,,0.00,Wunderground v.1.15,2013-01-23 18:56:00,
2013-01-23 14:02:00,45.2,20.4,30.32,NNW,333,3.0,-999.0,37,0.00,,,0.00,Wunderground v.1.15,2013-01-23 19:02:00,
2013-01-23 14:08:00,45.6,22.0,30.32,NNW,348,2.0,-999.0,39,0.00,,,0.00,Wunderground v.1.15,2013-01-23 19:08:00,
2013-01-23 14:14:00,45.3,20.5,30.31,NNE,21,2.0,-999.0,37,0.00,,,0.00,Wunderground v.1.15,2013-01-23 19:14:00,
2013-01-23 14:20:00,45.4,21.2,30.31,NE,44,2.0,-999.0,38,0.00,,,0.00,Wunderground v.1.15,2013-01-23 19:20:00,
2013-01-23 14:26:00,45.0,22.1,30.31,NNW,346,4.0,-999.0,40,0.00,,,0.00,Wunderground v.1.15,2013-01-23 19:26:00,
2013-01-23 14:32:00,45.2,20.4,30.31,NE,53,3.0,-999.0,37,0.00,,,0.00,Wunderground v.1.15,2013-01-23 19:32:00,
2013-01-23 14:38:00,45.4,21.2,30.31,NE,35,3.0,-999.0,38,0.00,,,0.00,Wunderground v.1.15,2013-01-23 19:38:00,
2013-01-23 14:44:00,45.6,20.8,30.31,ENE,71,2.0,-999.0,37,0.00,,,0.00,Wunderground v.1.15,2013-01-23 19:44:00,
2013-01-23 14:50:00,46.4,20.2,30.31,NNE,23,2.0,-999.0,35,0.00,,,0.00,Wunderground v.1.15,2013-01-23 19:50:00,
2013-01-23 14:56:00,46.7,20.5,30.31,NNE,19,3.0,-999.0,35,0.00,,,0.00,Wunderground v.1.15,2013-01-23 19:56:00,
2013-01-23 15:02:00,46.9,20.6,30.30,NNW,335,3.0,-999.0,35,0.00,,,0.00,Wunderground v.1.15,2013-01-23 20:02:00,
2013-01-23 15:08:00,47.0,20.7,30.30,NE,36,2.0,-999.0,35,0.00,,,0.00,Wunderground v.1.15,2013-01-23 20:08:00,
2013-01-23 15:14:00,47.0,20.0,30.30,NNW,342,3.0,-999.0,34,0.00,,,0.00,Wunderground v.1.15,2013-01-23 20:14:00,
2013-01-23 15:20:00,47.0,20.7,30.30,North,2,3.0,-999.0,35,0.00,,,0.00,Wunderground v.1.15,2013-01-23 20:20:00,
2013-01-23 15:26:00,46.7,21.1,30.30,NNE,24,3.0,-999.0,36,0.00,,,0.00,Wunderground v.1.15,2013-01-23 20:26:00,
2013-01-23 15:32:00,46.5,21.6,30.30,North,354,3.0,-999.0,37,0.00,,,0.00,Wunderground v.1.15,2013-01-23 20:32:00,
2013-01-23 15:38:00,46.6,21.0,30.30,NNW,339,2.0,-999.0,36,0.00,,,0.00,Wunderground v.1.15,2013-01-23 20:38:00,
2013-01-23 15:44:00,46.2,21.3,30.30,ENE,69,3.0,-999.0,37,0.00,,,0.00,Wunderground v.1.15,2013-01-23 20:44:00,
2013-01-23 15:50:00,45.9,21.1,30.30,ENE,65,3.0,-999.0,37,0.00,,,0.00,Wunderground v.1.15,2013-01-23 20:50:00,
2013-01-23 15:56:00,45.9,19.8,30.29,NE,41,3.0,-999.0,35,0.00,,,0.00,Wunderground v.1.15,2013-01-23 20:56:00,
2013-01-23 16:02:00,45.8,20.3,30.29,NNW,345,3.0,-999.0,36,0.00,,,0.00,Wunderground v.1.15,2013-01-23 21:02:00,
2013-01-23 16:08:00,45.7,19.6,30.29,NNE,24,2.0,-999.0,35,0.00,,,0.00,Wunderground v.1.15,2013-01-23 21:08:00,
2013-01-23 16:14:00,45.8,21.0,30.28,WNW,293,2.0,-999.0,37,0.00,,,0.00,Wunderground v.1.15,2013-01-23 21:14:00,
2013-01-23 16:20:00,45.6,20.1,30.28,NNW,331,3.0,-999.0,36,0.00,,,0.00,Wunderground v.1.15,2013-01-23 21:20:00,
2013-01-23 16:26:00,45.6,20.8,30.28,NE,56,3.0,-999.0,37,0.00,,,0.00,Wunderground v.1.15,2013-01-23 21:26:00,
2013-01-23 16:32:00,45.5,20.7,30.27,North,8,2.0,-999.0,37,0.00,,,0.00,Wunderground v.1.15,2013-01-23 21:32:00,
2013-01-23 16:38:00,45.5,21.3,30.27,NE,39,3.0,-999.0,38,0.00,,,0.00,Wunderground v.1.15,2013-01-23 21:38:00,
2013-01-23 16:44:00,45.4,21.2,30.27,North,9,2.0,-999.0,38,0.00,,,0.00,Wunderground v.1.15,2013-01-23 21:44:00,
2013-01-23 16:50:00,45.3,20.5,30.27,NNW,343,2.0,-999.0,37,0.00,,,0.00,Wunderground v.1.15,2013-01-23 21:50:00,
2013-01-23 16:56:00,45.3,21.2,30.27,NNE,24,2.0,-999.0,38,0.00,,,0.00,Wunderground v.1.15,2013-01-23 21:56:00,
2013-01-23 17:02:00,45.2,21.7,30.27,East,88,2.0,-999.0,39,0.00,,,0.00,Wunderground v.1.15,2013-01-23 22:02:00,
2013-01-23 17:08:00,45.2,21.1,30.27,North,351,2.0,-999.0,38,0.00,,,0.00,Wunderground v.1.15,2013-01-23 22:08:00,
2013-01-23 17:14:00,45.1,22.8,30.27,North,351,1.0,-999.0,41,0.00,,,0.00,Wunderground v.1.15,2013-01-23 22:14:00,
2013-01-23 17:20:00,44.8,21.9,30.27,NW,324,1.0,-999.0,40,0.00,,,0.00,Wunderground v.1.15,2013-01-23 22:20:00,
2013-01-23 17:26:00,44.5,21.6,30.26,NNW,344,1.0,-999.0,40,0.00,,,0.00,Wunderground v.1.15,2013-01-23 22:26:00,
2013-01-23 17:32:00,44.2,21.4,30.26,NNW,331,1.0,-999.0,40,0.00,,,0.00,Wunderground v.1.15,2013-01-23 22:32:00,
2013-01-23 17:38:00,44.0,21.8,30.27,NW,318,0.0,-999.0,41,0.00,,,0.00,Wunderground v.1.15,2013-01-23 22:38:00,
2013-01-23 17:44:00,43.6,21.4,30.27,NW,319,0.0,-999.0,41,0.00,,,0.00,Wunderground v.1.15,2013-01-23 22:44:00,
2013-01-23 17:50:00,43.1,21.5,30.27,NW,319,0.0,-999.0,42,0.00,,,0.00,Wunderground v.1.15,2013-01-23 22:50:00,
2013-01-23 17:56:00,42.5,21.0,30.27,NW,319,0.0,-999.0,42,0.00,,,0.00,Wunderground v.1.15,2013-01-23 22:56:00,
2013-01-23 18:02:00,42.0,21.6,30.27,NW,319,0.0,-999.0,44,0.00,,,0.00,Wunderground v.1.15,2013-01-23 23:02:00,
2013-01-23 18:08:00,41.3,21.5,30.27,NW,319,0.0,-999.0,45,0.00,,,0.00,Wunderground v.1.15,2013-01-23 23:08:00,
2013-01-23 18:14:00,40.7,22.5,30.26,NW,319,0.0,-999.0,48,0.00,,,0.00,Wunderground v.1.15,2013-01-23 23:14:00,
2013-01-23 18:20:00,40.0,22.4,30.26,NW,319,0.0,-999.0,49,0.00,,,0.00,Wunderground v.1.15,2013-01-23 23:20:00,
2013-01-23 18:26:00,39.4,22.3,30.26,NW,319,0.0,-999.0,50,0.00,,,0.00,Wunderground v.1.15,2013-01-23 23:26:00,
2013-01-23 18:32:00,38.8,22.2,30.26,NW,319,0.0,-999.0,51,0.00,,,0.00,Wunderground v.1.15,2013-01-23 23:32:00,
2013-01-23 18:38:00,38.6,22.5,30.25,WNW,300,0.0,-999.0,52,0.00,,,0.00,Wunderground v.1.15,2013-01-23 23:38:00,
2013-01-23 18:44:00,38.4,21.8,30.26,WNW,300,0.0,-999.0,51,0.00,,,0.00,Wunderground v.1.15,2013-01-23 23:44:00,
2013-01-23 18:50:00,38.4,22.3,30.25,WNW,300,0.0,-999.0,52,0.00,,,0.00,Wunderground v.1.15,2013-01-23 23:50:00,
2013-01-23 18:56:00,38.4,22.3,30.25,West,260,0.0,-999.0,52,0.00,,,0.00,Wunderground v.1.15,2013-01-23 23:56:00,
2013-01-23 19:02:00,38.6,22.5,30.25,WNW,294,0.0,-999.0,52,0.00,,,0.00,Wunderground v.1.15,2013-01-24 00:02:00,
2013-01-23 19:08:00,38.7,22.1,30.25,WNW,293,0.0,-999.0,51,0.00,,,0.00,Wunderground v.1.15,2013-01-24 00:08:00,
2013-01-23 19:14:00,38.9,22.3,30.24,WNW,285,0.0,-999.0,51,0.00,,,0.00,Wunderground v.1.15,2013-01-24 00:14:00,
2013-01-23 19:20:00,39.1,22.5,30.24,WNW,285,0.0,-999.0,51,0.00,,,0.00,Wunderground v.1.15,2013-01-24 00:20:00,
2013-01-23 19:26:00,39.4,22.3,30.23,WNW,287,0.0,-999.0,50,0.00,,,0.00,Wunderground v.1.15,2013-01-24 00:26:00,
2013-01-23 19:32:00,39.6,22.5,30.24,West,275,0.0,-999.0,50,0.00,,,0.00,Wunderground v.1.15,2013-01-24 00:32:00,
2013-01-23 19:38:00,39.7,22.6,30.23,WNW,295,0.0,-999.0,50,0.00,,,0.00,Wunderground v.1.15,2013-01-24 00:38:00,
2013-01-23 19:44:00,39.8,22.2,30.23,West,279,0.0,-999.0,49,0.00,,,0.00,Wunderground v.1.15,2013-01-24 00:44:00,
2013-01-23 19:50:00,39.8,22.7,30.23,WNW,290,0.0,-999.0,50,0.00,,,0.00,Wunderground v.1.15,2013-01-24 00:50:00,
2013-01-23 19:56:00,39.6,22.5,30.23,North,350,0.0,-999.0,50,0.00,,,0.00,Wunderground v.1.15,2013-01-24 00:56:00,
2013-01-23 20:02:00,39.4,22.3,30.23,NNW,332,0.0,-999.0,50,0.00,,,0.00,Wunderground v.1.15,2013-01-24 01:02:00,
2013-01-23 20:08:00,39.2,22.6,30.22,NNW,332,0.0,-999.0,51,0.00,,,0.00,Wunderground v.1.15,2013-01-24 01:08:00,
2013-01-23 20:14:00,39.1,22.9,30.22,NNW,343,0.0,-999.0,52,0.00,,,0.00,Wunderground v.1.15,2013-01-24 01:14:00,
2013-01-23 20:20:00,38.9,23.2,30.22,North,351,0.0,-999.0,53,0.00,,,0.00,Wunderground v.1.15,2013-01-24 01:20:00,
2013-01-23 20:26:00,38.8,23.1,30.21,WNW,292,0.0,-999.0,53,0.00,,,0.00,Wunderground v.1.15,2013-01-24 01:26:00,
2013-01-23 20:32:00,38.8,23.1,30.22,WNW,289,0.0,-999.0,53,0.00,,,0.00,Wunderground v.1.15,2013-01-24 01:32:00,
2013-01-23 20:38:00,39.0,23.7,30.21,NNE,14,1.0,-999.0,54,0.00,,,0.00,Wunderground v.1.15,2013-01-24 01:38:00,
2013-01-23 20:44:00,39.1,23.8,30.21,WNW,299,1.0,-999.0,54,0.00,,,0.00,Wunderground v.1.15,2013-01-24 01:44:00,
2013-01-23 20:50:00,39.1,23.8,30.22,NNW,329,0.0,-999.0,54,0.00,,,0.00,Wunderground v.1.15,2013-01-24 01:50:00,
2013-01-23 20:56:00,39.0,24.6,30.22,NW,308,0.0,-999.0,56,0.00,,,0.00,Wunderground v.1.15,2013-01-24 01:56:00,
2013-01-23 21:02:00,38.7,24.3,30.22,NW,326,0.0,-999.0,56,0.00,,,0.00,Wunderground v.1.15,2013-01-24 02:02:00,
2013-01-23 21:08:00,38.5,24.1,30.21,North,351,0.0,-999.0,56,0.00,,,0.00,Wunderground v.1.15,2013-01-24 02:08:00,
2013-01-23 21:14:00,38.7,24.8,30.21,NW,319,1.0,-999.0,57,0.00,,,0.00,Wunderground v.1.15,2013-01-24 02:14:00,
2013-01-23 21:20:00,38.8,24.9,30.21,NNW,333,1.0,-999.0,57,0.00,,,0.00,Wunderground v.1.15,2013-01-24 02:20:00,
2013-01-23 21:26:00,39.0,25.5,30.20,WNW,295,1.0,-999.0,58,0.00,,,0.00,Wunderground v.1.15,2013-01-24 02:26:00,
2013-01-23 21:32:00,39.3,26.2,30.20,NNW,339,1.0,-999.0,59,0.00,,,0.00,Wunderground v.1.15,2013-01-24 02:32:00,
2013-01-23 21:38:00,39.6,26.4,30.20,WNW,295,2.0,-999.0,59,0.00,,,0.00,Wunderground v.1.15,2013-01-24 02:38:00,
2013-01-23 21:44:00,40.0,26.8,30.20,WNW,292,2.0,-999.0,59,0.00,,,0.00,Wunderground v.1.15,2013-01-24 02:44:00,
2013-01-23 21:50:00,39.8,26.6,30.20,NNW,342,1.0,-999.0,59,0.00,,,0.00,Wunderground v.1.15,2013-01-24 02:50:00,
2013-01-23 21:56:00,39.7,26.9,30.19,NW,320,1.0,-999.0,60,0.00,,,0.00,Wunderground v.1.15,2013-01-24 02:56:00,
2013-01-23 22:02:00,39.7,26.9,30.19,North,353,1.0,-999.0,60,0.00,,,0.00,Wunderground v.1.15,2013-01-24 03:02:00,
2013-01-23 22:08:00,39.6,27.2,30.19,NNW,335,1.0,-999.0,61,0.00,,,0.00,Wunderground v.1.15,2013-01-24 03:08:00,
2013-01-23 22:14:00,39.6,27.2,30.18,NW,322,1.0,-999.0,61,0.00,,,0.00,Wunderground v.1.15,2013-01-24 03:14:00,
2013-01-23 22:20:00,39.5,27.2,30.18,North,349,1.0,-999.0,61,0.00,,,0.00,Wunderground v.1.15,2013-01-24 03:20:00,
2013-01-23 22:26:00,39.4,27.5,30.18,NNW,343,1.0,-999.0,62,0.00,,,0.00,Wunderground v.1.15,2013-01-24 03:26:00,
2013-01-23 22:32:00,39.1,27.2,30.18,NW,320,1.0,-999.0,62,0.00,,,0.00,Wunderground v.1.15,2013-01-24 03:32:00,
2013-01-23 22:38:00,39.0,27.5,30.17,NNW,343,1.0,-999.0,63,0.00,,,0.00,Wunderground v.1.15,2013-01-24 03:38:00,
2013-01-23 22:44:00,38.7,27.6,30.18,NNW,342,0.0,-999.0,64,0.00,,,0.00,Wunderground v.1.15,2013-01-24 03:44:00,
2013-01-23 22:50:00,38.4,27.3,30.17,NNW,337,0.0,-999.0,64,0.00,,,0.00,Wunderground v.1.15,2013-01-24 03:50:00,
2013-01-23 22:56:00,38.1,27.4,30.17,NW,320,0.0,-999.0,65,0.00,,,0.00,Wunderground v.1.15,2013-01-24 03:56:00,
2013-01-23 23:02:00,37.9,27.5,30.17,NW,324,0.0,-999.0,66,0.00,,,0.00,Wunderground v.1.15,2013-01-24 04:02:00,
2013-01-23 23:08:00,37.7,27.7,30.17,NNW,334,0.0,-999.0,67,0.00,,,0.00,Wunderground v.1.15,2013-01-24 04:08:00,
2013-01-23 23:14:00,37.4,27.4,30.16,NNW,334,0.0,-999.0,67,0.00,,,0.00,Wunderground v.1.15,2013-01-24 04:14:00,
2013-01-23 23:20:00,37.2,27.6,30.16,NW,320,0.0,-999.0,68,0.00,,,0.00,Wunderground v.1.15,2013-01-24 04:20:00,
2013-01-23 23:26:00,36.9,27.7,30.15,NW,321,0.0,-999.0,69,0.00,,,0.00,Wunderground v.1.15,2013-01-24 04:26:00,
2013-01-23 23:32:00,36.9,28.0,30.15,NNW,342,0.0,-999.0,70,0.00,,,0.00,Wunderground v.1.15,2013-01-24 04:32:00,
2013-01-23 23:38:00,37.1,28.2,30.15,NNW,337,0.0,-999.0,70,0.00,,,0.00,Wunderground v.1.15,2013-01-24 04:38:00,
2013-01-23 23:44:00,37.7,28.8,30.15,North,354,1.0,-999.0,70,0.00,,,0.00,Wunderground v.1.15,2013-01-24 04:44:00,
2013-01-23 23:50:00,38.0,28.7,30.14,North,351,1.0,-999.0,69,0.00,,,0.00,Wunderground v.1.15,2013-01-24 04:50:00,
2013-01-23 23:56:00,38.1,28.8,30.15,North,2,1.0,-999.0,69,0.00,,,0.00,Wunderground v.1.15,2013-01-24 04:56:00,